Back to catalog

FENGYUN 1C DEB

AliveSSO
NORAD 32350·DEBRIS·🇨🇳 China

Launched May 10, 1999 from Taiyuan Satellite Launch Center

Loading…

Next Passes (next 24 hours)

TLE

FreshSource: Space-Track

Epoch: Sep 12, 2026, 08:53 UTC

1 32350U 99025CYT 26255.37079956  .00002373  00000-0  35793-3 0  9999
2 32350  98.1942 300.1954 0260728 172.2314 188.3046 14.54888588 14841

Track FENGYUN 1C DEB in real time with AllMySat

Download on the App Store